Regional Weather Roundup
Issued by NWS Wakefield, VA

Home | Current Version | Previous Version | Graphics & Text | Print | Product List | Glossary On
Versions: 1 2 3 4 5 6 7 8 9 10 11 12 13 14 15 16 17 18 19 20 21 22 23 24 25 26 27 28 29 30 31 32 33 34 35 36 37 38 39 40 41 42 43 44 45 46 47 48 49 50
000
ASUS41 KAKQ 281510
RWRAKQ

REGIONAL WEATHER ROUNDUP
NATIONAL WEATHER SERVICE WAKEFIELD VA
1000 AM EST FRI NOV 28 2014

Note: "fair" indicates few or no clouds below 12,000 feet with no
significant weather and/or obstructions to visibility. * = Denotes
station may not report precipitation (e.g., rain,snow,etc.),
thunder or fog.

VAZ042-051-052>054-056-281600-
NORTHERN VIRGINIA

CITY           SKY/WX    TMP DP  RH WIND       PRES   REMARKS
WASH NATIONAL  PTSUNNY   39  20  46 NW10G18   30.33R
DULLES         MOSUNNY   35  19  52 NW18G26   30.33R WCI  24
FORT BELVOIR   MOSUNNY   38  18  43 W17       30.33R
QUANTICO       SUNNY     38  18  44 N17G26    30.35R
FREDERICKSBRG* SUNNY     39  22  52 NW18G26   30.32F
STAFFORD*      SUNNY     36  20  52 NW9G18    30.37S
WARRENTON      SUNNY     39  27  62 NW10      30.32S
CULPEPER*      SUNNY     37  19  48 NW8       30.33F
MANASSAS*      SUNNY     37  21  52 NW17G24   30.32S
LEESBURG*      CLOUDY    32  28  86 N13G22    30.33R WCI  22
WINCHESTER     CLOUDY    34  18  51 NW10      30.31R
FRONT ROYAL*   CLOUDY    34  19  55 W7        30.30R
LURAY*         MOSUNNY   36  21  55 W6        30.31S
$$

VAZ048-049-060>072-079>083-281600-
CENTRAL AND SOUTH CENTRAL VIRGINIA

CITY           SKY/WX    TMP DP  RH WIND       PRES   REMARKS
RICHMOND       MOSUNNY   40  24  53 NW10      30.34R
CHESTERFIELD*  SUNNY     39  18  41 NW15      30.35R
PETERSBURG*    SUNNY     40  24  53 NW8       30.35R
HANOVER        SUNNY     37  24  59 NW9       30.36R
TAPPAHANNOCK*  SUNNY     38  19  46 W13       30.32S
QUINTON*       SUNNY     37  22  55 NW15      30.33R
CHARLOTTSVILLE MOSUNNY   36  14  40 N12       30.33R
GORDONSVILLE*  PTSUNNY   35  18  49 NW3       30.33S
ORANGE*        PTSUNNY   36  19  51 NW8G17    30.35R
LOUISA*        PTSUNNY   39  21  48 W9        30.32S
BUMPASS*       SUNNY     36  21  53 NW7       30.33S
FARMVILLE*     SUNNY     41  23  49 N7        30.35R
CREWE*         SUNNY     37  19  50 NW9G17    30.35R
FORT PICKETT*  SUNNY     37  21  53 NW15      30.34R
CHASE CITY*    SUNNY     38  23  55 NW6       30.36R
CLARKSVILLE*   SUNNY     36  21  55 N9        30.35S
SOUTH HILL*    MOSUNNY   37  23  56 NW7       30.41R
LAWRENCEVILLE* SUNNY     37  24  59 NW9       30.34R
$$

VAZ088>098-281600-
SOUTHEAST VIRGINIA

CITY           SKY/WX    TMP DP  RH WIND       PRES   REMARKS
NORFOLK        SUNNY     40  22  48 N9G23     30.31S
VIRGINIA BEACH MOSUNNY   41  23  48 N21G32    30.31R
NORFOLK NAVAL  MOSUNNY   43  24  47 NW12      30.33S
WEST POINT*    SUNNY     40  24  51 NW6G16    30.34R
SALUDA*        FAIR      38  23  54 NW13G20   30.31S
NEWPORT NEWS   SUNNY     41  24  51 NW13G22   30.32S
LANGLEY AFB    SUNNY     39  24  56 NW13G22   30.32S
FORT EUSTIS    SUNNY     39  22  50 NW9       30.31S
WILLIAMSBURG*  SUNNY     43  28  56 NW10G16   30.33S
HR EXEC AP*    SUNNY     37  28  70 NW8       30.35S
FRANKLIN*      SUNNY     37  27  65 N7        30.34S
WAKEFIELD      SUNNY     40  25  55 VRB5      30.34R
$$

VAZ020-022-025-037-045-281600-
WEST CENTRAL AND SOUTHWEST VIRGINIA

CITY           SKY/WX    TMP DP  RH WIND       PRES   REMARKS
STAUNTON*      MOSUNNY   32  16  51 NW8       30.33R
WAYNESBORO*    SUNNY     29  13  51 W6        30.30S
HOT SPRINGS VA CLOUDY    19  13  76 W9        30.15R
LYNCHBURG      SUNNY     35  17  47 VRB7      30.34S
DANVILLE       SUNNY     37  19  48 NW9       30.37R
SOUTH BOSTON*  SUNNY     38  21  51 NW8       30.37R
MARTINSVILLE   SUNNY     36  17  47 NW14      30.39F
ROANOKE        PTSUNNY   31  16  54 NW10      30.37R WCI  22
BLACKSBURG     LGT SNOW  27  23  86 W7        30.33R
DUBLIN*        PTSUNNY   30  17  57 NW5       30.33R
MARION*        CLOUDY    26  15  63 SW8       30.32R
HILLSVILLE*    CLOUDY    25  16  70 NW6       30.27S
RICHLANDS*     CLOUDY    26  17  67 NW7       30.30S
WISE*          CLOUDY    27  18  69 CALM      30.32S
ABINGDON*      MOSUNNY   29  18  63 N5        30.34S
$$

MDZ021>025-VAZ099-100-281600-
SOUTHERN MARYLAND AND THE DELMARVA PENINSULA

CITY           SKY/WX    TMP DP  RH WIND       PRES   REMARKS
PATUXENT RIVER MOSUNNY   38  22  52 NW17G26   30.30R
BAY BRIDGE APT   N/A     37  21  52 NW15G25   30.30R
LEONARDTOWN    SUNNY     37  21  52 NW14G21   30.31R
DOVER          SUNNY     38  25  59 NW17G25   30.24R
GEORGETOWN     SUNNY     38  23  55 N9G18     30.27R
EASTON         SUNNY     39  27  60 NW15G23   30.32R
CAMBRIDGE      SUNNY     39  25  56 NW13G24   30.28R
SALISBURY      SUNNY     41  24  51 NW21G26   30.27R
OCEAN CITY     SUNNY     38  24  57 NW13      30.26S
WALLOPS ISLAND SUNNY     38  23  55 N15       30.28S
ACCOMACK*      MOSUNNY   39  21  48 N16G29    30.29S
$$

NCZ012>017-030>032-281600-
NORTH CENTRAL AND EASTERN NORTH CAROLINA

CITY           SKY/WX    TMP DP  RH WIND       PRES   REMARKS
ROANOKE RAPIDS SUNNY     37  25  60 N13G18    30.35R
RALEIGH        MOSUNNY   38  20  48 N12G17    30.38R
ELIZABETH CITY SUNNY     42  25  50 NW17G26   30.32S
AHOSKIE*       SUNNY     38  25  60 NW5       30.35S
EDENTON*         N/A     39  29  66 N9        30.33S
CURRITUCK*     SUNNY     40  23  50 NW13G21   30.32S
KILL DEVIL HLS SUNNY     41  27  57 NW10G21   30.28S
MANTEO         SUNNY     40  28  60 N15G24    30.31R
CAPE HATTERAS  SUNNY     41  30  65 N10G23    30.30R
TARBORO*       SUNNY     39  25  57 N8        30.37R
GOLDSBORO      SUNNY     40  26  56 NW12G17   30.35R
WASHINGTON     SUNNY     38  25  58 N8        30.35R
GREENVILLE     SUNNY     39  27  60 N8        30.37R
NEW BERN       SUNNY     41  26  55 N14       30.36R
WILMINGTON     SUNNY     40  24  53 N14       30.36R
$$

VAZ048-281600-
ELSEWHERE

CITY           SKY/WX    TMP DP  RH WIND       PRES   REMARKS
HARRISBURG PA  PTSUNNY   33  17  51 NW16      30.27R WCI  23
BALTIMORE      MOSUNNY   37  20  50 NW10G18   30.30R
ANNAPOLIS      SUNNY     38  22  52 NW15G26   30.30R
ANDREWS AFB    MIX PCPN  38  22  52 NW14      30.30R
PHILADELPHIA   MOSUNNY   37  21  52 NW14      30.26R
WILDWOOD NJ*   SUNNY     37  21  52 NW15G26   30.22R
HENDERSON NC   SUNNY     37  20  50 NW9       30.36R
GREENSBORO     MOSUNNY   36  16  44 N8        30.35S
ROCKY MOUNT    SUNNY     40  23  50 NW8       30.37R
$$

VAZ100-281600-
MARINE

STATION/POSITION TIME  TEMP    WIND        PRES    WAVE   SWELL
                       AIR SEA DIR/SP/G            HT/PER HT/PER
                 (UTC) (F)     (DEG/KT/KT) (MB)    (FT/S) (FT/S)
CAPE MAY NJ      1500   38 45  320/ 25/ 33 1023.2F
LEWES DE         1500   37 46  320/ 27/ 32 1024.1S
15NM E FENWICK I 1500   39 53              1023.0R   6/ 5
OCEAN-CITY-INLET 1500   37 45  330/ 16/ 19 1024.3S
WACHAPREAGUE VA  1500   40 44  330/  9/ 19 1025.5S
THOMAS POINT MD  1500   37 45  320/ 18/ 21 1026.9R
GOOSES REEF MD   1500   38     330/ 19/ 23 1026.1R
COVE POINT MD    1500   36     340/ 16/ 21 1025.8R
SOLOMONS ISLAND  1500      47                N/A
BISHOPS HEAD MD  1500   38 40  330/ 17/ 23 1025.2S
PINEY POINT MD   1500          340/ 20/ 23   N/A
POTOMAC MD       1500   38     330/ 16/ 19 1025.3S
CAMBRIDGE MD     1500   37 44  310/ 16/ 23 1025.5R
LEWISETTA VA     1500   38 45  320/ 17/ 21 1026.1F
RAPPAHANNOCK LGT 1500          320/ 19/ 22 1026.2R
STINGRAY PT      1500   38     340/ 17/ 21 1026.4F
YORK RVR RNG VA  1500   37     350/ 18/ 22 1025.9S
YORKTOWN VA      1500   38 50  340/ 17/ 20 1026.3R
JAMESTOWN VA     1500   36     340/ 12/ 14   N/A
DOMINION TERM VA 1500   38     350/ 10/ 15 1026.6S
KIPTOPEKE VA     1500      51  350/ 19/ 25   N/A
CHES BAY BRIDGE  1500   38 49  330/ 27/ 31 1025.9S
CAPE HENRY VA    1500   38     330/ 22/ 25 1024.9F
CHESAPEAKE LGHT  1400   39     340/ 24/ 27 1025.8R
WILLOUBY STN VA  1500   38     320/ 13/ 16 1025.1S
S CRANEY ISL VA  1500          320/ 13/ 18 1026.3F
CAPE HENRY BUOY  1500      55                N/A     5/ 5   2/13
1ST LANDING BUOY 1500   40     340/ 21/ 25 1025.8S
CAPE CHARLES BUO 1500      53                N/A     4/ 4   2/10
64NM E OF VA BCH 1500   44 64  340/ 21/ 29 1023.7R   7/ 7   2/11
DUCK PIER NC     1500   40 52  350/ 20/ 24 1024.7S
44100 DUCK FRF   1500      56                N/A     7/ 7   2/13
44056 DUCK FRF   1500      54                N/A     6/ 6   2/13
OREGON INLET NC  1500   41 52  330/ 12/ 19 1025.7R
HATTERAS NC      1500   41 52  340/ 20/ 27 1026.2S
DIAMOND SHLS NC  1400   45     330/ 21/ 29 1024.2R   6/ 6   2/13
CAPE LOOKOUT NC  1400   38     350/ 14/ 17 1026.4R
$$



USA.gov is the U.S. government's official web portal to all federal, state and local government web resources and services.